Simultaneous Nadir Overpasses (SNOs) Predictions

Prediction of SNOs between GOES-17 and TERRA Satellite Orbit:

Table of predicted SNOs for the next 14.0 days since TLE Epoch: 10/16/2023
Index Date Time (GOES-17) GOES-17 Lat,Lon TERRA Lat,Lon Distance(km) Time Diff (sec)
1 10/16/2023 17:11:39 -0.00,-104.70 0.70,-108.08 383.80 80
2 10/18/2023 16:57:44 -0.00,-104.70 -0.12,-104.08 70.32 80
3 10/19/2023 05:18:00 0.00,-104.69 -0.91,-109.01 491.14 80
4 10/21/2023 05:01:25 0.00,-104.67 -0.05,-105.01 37.32 80
5 10/23/2023 04:42:10 -0.01,-104.66 0.79,-101.00 417.02 80
6 10/23/2023 17:02:16 0.01,-104.67 0.24,-105.89 137.94 80
7 10/25/2023 16:48:19 0.01,-104.66 -0.57,-101.87 316.96 80
8 10/26/2023 05:08:35 -0.01,-104.65 -0.47,-106.80 243.64 80
9 10/28/2023 04:49:18 -0.01,-104.65 0.39,-102.79 211.63 80
10 10/28/2023 17:09:25 0.01,-104.65 0.63,-107.68 343.63 80
